�������l�o���
Date,Time,MP-1(��Sv/h),MP-2(��Sv/h),MP-3(��Sv/h),MP-4(��Sv/h),MP-5(��Sv/h),MP-6(��Sv/h),MP-7(��Sv/h),MP-8(��Sv/h),����,����(m/s),���J
2018/01/09,00:00,0.890,1.464,0.934,1.754,1.176,0.497,0.881,0.841,�k�k��,5.7,�L
2018/01/09,00:10,0.891,1.463,0.932,1.750,1.177,0.499,0.878,0.841,�k�k��,5.0,�L
2018/01/09,00:20,0.890,1.465,0.932,1.747,1.170,0.498,0.878,0.841,�k�k��,5.7,�L
2018/01/09,00:30,0.887,1.460,0.929,1.743,1.170,0.497,0.879,0.843,�k�k��,5.9,�L
2018/01/09,00:40,0.884,1.456,0.932,1.741,1.170,0.497,0.878,0.840,�k�k��,6.2,�L
2018/01/09,00:50,0.885,1.455,0.930,1.738,1.168,0.497,0.874,0.838,�k�k��,6.0,�L
2018/01/09,01:00,0.885,1.455,0.929,1.736,1.168,0.494,0.877,0.840,�k�k��,5.8,�L
2018/01/09,01:10,0.884,1.454,0.925,1.735,1.168,0.496,0.877,0.838,�k�k��,5.4,�L
2018/01/09,01:20,0.882,1.450,0.926,1.729,1.163,0.495,0.874,0.838,�k�k��,5.1,�L
2018/01/09,01:30,0.878,1.447,0.921,1.724,1.159,0.493,0.873,0.839,�k,5.0,�L
2018/01/09,01:40,0.876,1.442,0.921,1.723,1.158,0.493,0.873,0.836,�k�k��,5.0,�L
2018/01/09,01:50,0.878,1.443,0.921,1.719,1.157,0.493,0.872,0.836,�k,3.7,�L
2018/01/09,02:00,0.875,1.436,0.917,1.718,1.153,0.492,0.873,0.835,�k�k��,2.6,�L
2018/01/09,02:10,0.873,1.435,0.917,1.716,1.154,0.491,0.869,0.836,�k,3.8,�L
2018/01/09,02:20,0.874,1.436,0.916,1.714,1.153,0.490,0.871,0.835,�k,3.9,�L
2018/01/09,02:30,0.875,1.439,0.917,1.715,1.153,0.492,0.872,0.835,�k,3.7,��
2018/01/09,02:40,0.873,1.439,0.914,1.712,1.156,0.491,0.870,0.835,�k,4.3,��
2018/01/09,02:50,0.877,1.441,0.915,1.712,1.156,0.489,0.871,0.835,�k�k��,4.0,�L
2018/01/09,03:00,0.875,1.440,0.915,1.714,1.156,0.490,0.871,0.834,�k��,4.9,�L
2018/01/09,03:10,0.874,1.436,0.916,1.715,1.153,0.491,0.872,0.835,�k�k��,4.9,�L
2018/01/09,03:20,0.873,1.436,0.913,1.711,1.153,0.491,0.869,0.837,�k�k��,3.8,�L
2018/01/09,03:30,0.872,1.436,0.912,1.714,1.151,0.492,0.870,0.834,�k�k��,4.8,�L
2018/01/09,03:40,0.874,1.437,0.913,1.711,1.152,0.489,0.873,0.835,�k,4.5,�L
2018/01/09,03:50,0.873,1.437,0.917,1.715,1.153,0.490,0.870,0.837,�k,3.6,�L
2018/01/09,04:00,0.873,1.436,0.913,1.711,1.152,0.491,0.871,0.835,�k,3.0,�L
2018/01/09,04:10,0.872,1.434,0.914,1.709,1.154,0.490,0.870,0.834,�k,2.0,�L
2018/01/09,04:20,0.872,1.436,0.912,1.708,1.151,0.489,0.870,0.834,�k�k��,1.2,�L
2018/01/09,04:30,0.871,1.438,0.912,1.708,1.150,0.489,0.872,0.836,��,0.6,�L
2018/01/09,04:40,0.874,1.436,0.914,1.711,1.153,0.491,0.871,0.835,���쓌,1.7,�L
2018/01/09,04:50,0.872,1.435,0.912,1.710,1.154,0.490,0.871,0.833,�k��,1.5,�L
2018/01/09,05:00,0.873,1.434,0.914,1.707,1.152,0.491,0.870,0.833,�k,1.7,��
2018/01/09,05:10,0.872,1.436,0.913,1.709,1.151,0.488,0.871,0.834,�k,1.7,��
2018/01/09,05:20,0.872,1.437,0.912,1.713,1.153,0.488,0.871,0.835,�k�k��,1.7,��
2018/01/09,05:30,0.870,1.437,0.910,1.710,1.153,0.488,0.870,0.835,�k��,1.9,��
2018/01/09,05:40,0.874,1.435,0.913,1.712,1.155,0.488,0.869,0.835,�k�k��,1.7,��
2018/01/09,05:50,0.875,1.439,0.912,1.708,1.153,0.491,0.871,0.834,�k,0.9,��
2018/01/09,06:00,0.871,1.437,0.912,1.712,1.155,0.489,0.870,0.834,-,CALM,��
2018/01/09,06:10,0.873,1.438,0.911,1.709,1.155,0.487,0.869,0.834,�k�k��,0.8,��
2018/01/09,06:20,0.873,1.440,0.913,1.712,1.156,0.490,0.871,0.836,��쐼,1.1,��
2018/01/09,06:30,0.874,1.439,0.914,1.711,1.153,0.490,0.871,0.837,�쐼,2.2,��
2018/01/09,06:40,0.872,1.437,0.914,1.712,1.154,0.488,0.872,0.835,��쐼,3.0,��
2018/01/09,06:50,0.874,1.440,0.914,1.711,1.154,0.487,0.868,0.835,��쐼,1.5,��
2018/01/09,07:00,0.874,1.439,0.914,1.710,1.156,0.489,0.871,0.835,��쐼,0.9,��
2018/01/09,07:10,0.873,1.439,0.911,1.711,1.155,0.490,0.871,0.835,�쐼,1.7,��
2018/01/09,07:20,0.873,1.438,0.912,1.711,1.155,0.487,0.871,0.835,���쐼,2.5,��
2018/01/09,07:30,0.874,1.437,0.912,1.712,1.156,0.489,0.872,0.836,���쐼,2.5,��
2018/01/09,07:40,0.873,1.440,0.913,1.712,1.154,0.489,0.870,0.834,��쐼,2.6,��
2018/01/09,07:50,0.872,1.439,0.913,1.712,1.156,0.488,0.869,0.834,���쐼,2.6,��
2018/01/09,08:00,0.873,1.440,0.913,1.712,1.157,0.494,0.871,0.836,��,3.2,��
2018/01/09,08:10,0.874,1.439,0.914,1.714,1.158,0.489,0.874,0.837,��,5.2,��
2018/01/09,08:20,0.875,1.440,0.917,1.713,1.158,0.489,0.869,0.836,���k��,5.8,��
2018/01/09,08:30,0.877,1.441,0.916,1.714,1.157,0.493,0.873,0.835,���k��,5.1,��
2018/01/09,08:40,0.877,1.439,0.916,1.714,1.157,0.490,0.871,0.837,���k��,5.6,��
2018/01/09,08:50,0.877,1.440,0.918,1.715,1.157,0.491,0.872,0.836,���k��,5.1,��
2018/01/09,09:00,0.878,1.442,0.916,1.713,1.156,0.491,0.871,0.836,���k��,2.3,��
2018/01/09,09:10,0.876,1.443,0.916,1.718,1.157,0.490,0.875,0.838,���k��,3.5,��
2018/01/09,09:20,0.875,1.442,0.918,1.716,1.158,0.492,0.876,0.836,���k��,4.9,��
2018/01/09,09:30,0.876,1.441,0.917,1.718,1.158,0.490,0.875,0.838,���k��,8.4,��
2018/01/09,09:40,0.877,1.444,0.916,1.718,1.163,0.490,0.873,0.838,�k��,6.6,��
2018/01/09,09:50,0.878,1.444,0.919,1.719,1.160,0.491,0.874,0.841,���k��,7.3,��
2018/01/09,10:00,0.879,1.444,0.918,1.721,1.163,0.491,0.874,0.840,���k��,9.5,��
2018/01/09,10:10,0.880,1.446,0.919,1.720,1.161,0.491,0.874,0.839,���k��,9.3,��
2018/01/09,10:20,0.877,1.447,0.919,1.722,1.162,0.492,0.875,0.839,���k��,9.2,��
2018/01/09,10:30,0.879,1.445,0.919,1.721,1.165,0.492,0.875,0.840,���k��,11.3,��
2018/01/09,10:40,0.878,1.447,0.919,1.723,1.162,0.492,0.875,0.840,���k��,9.9,��
2018/01/09,10:50,0.879,1.449,0.921,1.726,1.165,0.492,0.874,0.840,���k��,10.2,��
2018/01/09,11:00,0.881,1.449,0.921,1.726,1.166,0.491,0.875,0.842,���k��,11.4,��
2018/01/09,11:10,0.881,1.449,0.922,1.724,1.165,0.493,0.875,0.842,���k��,7.8,��
2018/01/09,11:20,0.880,1.449,0.922,1.727,1.166,0.492,0.876,0.841,���k��,3.4,��
2018/01/09,11:30,0.882,1.447,0.921,1.728,1.165,0.492,0.877,0.841,��,4.0,��
2018/01/09,11:40,0.881,1.451,0.922,1.728,1.164,0.493,0.874,0.840,�k�k��,4.9,��
2018/01/09,11:50,0.881,1.450,0.923,1.726,1.167,0.492,0.876,0.841,���k��,3.5,��
2018/01/09,12:00,0.883,1.449,0.923,1.729,1.168,0.492,0.874,0.842,�쓌,1.9,��
2018/01/09,12:10,0.879,1.451,0.923,1.729,1.166,0.493,0.874,0.842,���k��,1.2,��
2018/01/09,12:20,0.881,1.454,0.923,1.730,1.168,0.493,0.876,0.840,���k��,6.1,��
2018/01/09,12:30,0.881,1.454,0.925,1.729,1.167,0.495,0.876,0.843,�k��,5.7,��
2018/01/09,12:40,0.883,1.455,0.925,1.730,1.169,0.494,0.875,0.841,��,5.0,��
2018/01/09,12:50,0.883,1.455,0.924,1.731,1.168,0.494,0.876,0.841,���k��,4.0,��
2018/01/09,13:00,0.881,1.454,0.925,1.729,1.169,0.493,0.876,0.842,�k��,4.7,��
2018/01/09,13:10,0.883,1.453,0.924,1.731,1.169,0.494,0.877,0.841,���k��,6.9,��
2018/01/09,13:20,0.884,1.453,0.923,1.733,1.169,0.493,0.876,0.841,���k��,6.5,��
2018/01/09,13:30,0.884,1.456,0.925,1.730,1.170,0.493,0.876,0.843,���k��,11.8,��
2018/01/09,13:40,0.881,1.455,0.927,1.733,1.169,0.494,0.877,0.841,��,11.6,��
2018/01/09,13:50,0.884,1.455,0.925,1.733,1.170,0.494,0.876,0.842,��,10.2,��
2018/01/09,14:00,0.883,1.455,0.926,1.734,1.172,0.494,0.876,0.840,��,11.6,��
2018/01/09,14:10,0.883,1.455,0.924,1.735,1.169,0.493,0.876,0.840,���k��,12.4,��
2018/01/09,14:20,0.881,1.456,0.923,1.736,1.169,0.493,0.875,0.839,���k��,16.6,��
2018/01/09,14:30,0.883,1.452,0.925,1.737,1.172,0.493,0.876,0.838,��,16.6,��
2018/01/09,14:40,0.883,1.450,0.924,1.738,1.173,0.495,0.877,0.839,���k��,14.1,��
2018/01/09,14:50,0.883,1.454,0.926,1.736,1.170,0.493,0.875,0.841,��,17.1,��
2018/01/09,15:00,0.882,1.456,0.925,1.739,1.174,0.495,0.877,0.840,���k��,13.5,��
2018/01/09,15:10,0.884,1.456,0.927,1.740,1.172,0.494,0.878,0.843,��,15.2,��
2018/01/09,15:20,0.884,1.456,0.926,1.739,1.175,0.495,0.876,0.842,��,15.8,��
2018/01/09,15:30,0.884,1.458,0.927,1.740,1.172,0.495,0.878,0.843,���k��,12.4,��
2018/01/09,15:40,0.884,1.460,0.926,1.740,1.172,0.494,0.876,0.844,��,13.8,��
2018/01/09,15:50,0.882,1.460,0.927,1.739,1.170,0.494,0.877,0.842,��,13.2,��
2018/01/09,16:00,0.885,1.460,0.927,1.740,1.173,0.495,0.879,0.844,��,14.9,��
2018/01/09,16:10,0.884,1.459,0.926,1.739,1.172,0.494,0.877,0.843,��,15.3,��
2018/01/09,16:20,0.885,1.461,0.925,1.742,1.174,0.494,0.877,0.841,��,16.1,��
2018/01/09,16:30,0.883,1.461,0.925,1.740,1.175,0.496,0.879,0.844,��,13.3,��
2018/01/09,16:40,0.883,1.459,0.926,1.740,1.172,0.493,0.879,0.842,��,15.3,��
2018/01/09,16:50,0.882,1.462,0.927,1.741,1.172,0.494,0.878,0.842,��,14.9,��
2018/01/09,17:00,0.882,1.461,0.926,1.743,1.172,0.494,0.880,0.841,��,15.8,��
2018/01/09,17:10,0.883,1.463,0.926,1.741,1.172,0.493,0.879,0.843,��,14.9,��
2018/01/09,17:20,0.884,1.463,0.926,1.742,1.171,0.495,0.880,0.843,��,13.6,��
2018/01/09,17:30,0.882,1.464,0.927,1.743,1.175,0.494,0.878,0.840,��,13.9,��
2018/01/09,17:40,0.882,1.463,0.926,1.744,1.170,0.493,0.878,0.842,��,14.1,��
2018/01/09,17:50,0.883,1.464,0.925,1.743,1.174,0.493,0.880,0.843,���k��,16.1,��
2018/01/09,18:00,0.881,1.463,0.924,1.741,1.173,0.494,0.878,0.842,���k��,15.5,��
2018/01/09,18:10,0.882,1.463,0.925,1.744,1.172,0.494,0.877,0.842,��,13.5,�L
2018/01/09,18:20,0.881,1.463,0.925,1.741,1.173,0.494,0.880,0.843,��,10.6,�L
2018/01/09,18:30,0.883,1.464,0.925,1.742,1.171,0.493,0.877,0.842,���쐼,9.0,�L
2018/01/09,18:40,0.882,1.463,0.925,1.742,1.170,0.493,0.878,0.842,��,11.0,��
2018/01/09,18:50,0.882,1.462,0.925,1.742,1.174,0.494,0.876,0.844,��,10.6,�L
2018/01/09,19:00,0.882,1.464,0.926,1.744,1.168,0.492,0.880,0.841,��,10.2,��
2018/01/09,19:10,0.880,1.463,0.924,1.746,1.170,0.494,0.879,0.842,��,12.0,�L
2018/01/09,19:20,0.882,1.466,0.926,1.743,1.171,0.492,0.879,0.841,���쐼,11.6,��
2018/01/09,19:30,0.880,1.463,0.926,1.743,1.171,0.495,0.877,0.841,��,11.0,��
2018/01/09,19:40,0.880,1.461,0.927,1.743,1.170,0.493,0.878,0.840,��,10.2,��
2018/01/09,19:50,0.881,1.462,0.924,1.742,1.171,0.494,0.879,0.841,���쐼,12.0,��
2018/01/09,20:00,0.881,1.463,0.923,1.741,1.170,0.494,0.879,0.841,��,15.0,��
2018/01/09,20:10,0.879,1.466,0.924,1.744,1.169,0.493,0.877,0.842,��,12.2,��
2018/01/09,20:20,0.880,1.463,0.923,1.739,1.169,0.493,0.877,0.842,��,12.4,��
2018/01/09,20:30,0.880,1.463,0.923,1.742,1.166,0.493,0.878,0.842,���쐼,11.8,��
2018/01/09,20:40,0.881,1.463,0.924,1.743,1.170,0.492,0.878,0.842,���쐼,8.6,��
2018/01/09,20:50,0.881,1.463,0.925,1.741,1.171,0.492,0.877,0.842,���쐼,8.0,��
2018/01/09,21:00,0.881,1.462,0.926,1.744,1.171,0.492,0.877,0.840,��,10.5,��
2018/01/09,21:10,0.880,1.463,0.924,1.743,1.172,0.492,0.877,0.841,���쐼,8.6,��
2018/01/09,21:20,0.881,1.464,0.926,1.743,1.174,0.493,0.879,0.842,��,8.9,��
2018/01/09,21:30,0.882,1.463,0.924,1.739,1.173,0.493,0.878,0.842,��,8.1,��
2018/01/09,21:40,0.879,1.462,0.924,1.742,1.172,0.491,0.877,0.841,��,8.2,��
2018/01/09,21:50,0.880,1.463,0.925,1.744,1.173,0.492,0.877,0.841,��,6.1,��
2018/01/09,22:00,0.880,1.464,0.924,1.741,1.173,0.493,0.877,0.840,��,4.9,��
2018/01/09,22:10,0.879,1.464,0.923,1.742,1.171,0.493,0.876,0.840,���k��,6.8,��
2018/01/09,22:20,0.881,1.460,0.924,1.742,1.171,0.493,0.877,0.842,��,8.8,��
2018/01/09,22:30,0.881,1.459,0.925,1.740,1.173,0.490,0.877,0.842,��,8.7,��
2018/01/09,22:40,0.880,1.465,0.925,1.742,1.171,0.491,0.876,0.840,��,8.7,��
2018/01/09,22:50,0.881,1.466,0.925,1.745,1.172,0.492,0.877,0.841,��,7.9,��
2018/01/09,23:00,0.881,1.460,0.924,1.744,1.173,0.492,0.877,0.842,��,5.9,��
2018/01/09,23:10,0.880,1.464,0.924,1.741,1.172,0.491,0.877,0.841,��,6.1,��
2018/01/09,23:20,0.882,1.462,0.923,1.745,1.173,0.493,0.877,0.842,��,7.5,��
2018/01/09,23:30,0.878,1.465,0.924,1.741,1.176,0.492,0.876,0.841,��,5.2,��
2018/01/09,23:40,0.881,1.463,0.925,1.745,1.174,0.493,0.878,0.841,��,5.4,��
2018/01/09,23:50,0.880,1.463,0.925,1.744,1.173,0.492,0.877,0.841,��,6.9,��
